[Date Prev][Date Next][Thread Prev][Thread Next] - [Date Index][Thread Index][Author Index]

2 Line ISS Keps 10-7



ISS
1 25544U 98067A   03280.31891230  .00020936  00000-0  23898-3 0  6035
2 25544  51.6303 175.1796 0006426  15.9472  88.5820 15.62145592278527


----
Via the sarex mailing list at AMSAT.ORG courtesy of AMSAT-NA.
To unsubscribe, send "unsubscribe sarex" to Majordomo@amsat.org



AMSAT Top AMSAT Home